Location: Unspecified
(40.7945°N, 111.1337°W)
Time: 02:38:43
(UTC-06:00)

Hubble Space Telescope - Visible Passes

Search period start: 21 October 2017 00:00
Search period end: 31 October 2017 00:00
Orbit: 537 x 541 km, 28.5° (Epoch: 20 October)

Date Brightness Start Highest point End Pass type
(mag) Time Alt. Az. Time Alt. Az. Time Alt. Az.
22 Oct 3.2 19:42:47 10° S 19:43:41 11° SSE 19:44:37 10° SSE visible
23 Oct 3.1 19:31:48 10° SSW 19:33:22 12° S 19:34:56 10° SSE visible
24 Oct 3.1 19:21:07 10° SSW 19:23:03 13° S 19:24:58 10° SE visible
24 Oct 3.6 21:01:20 10° SW 21:01:36 11° SSW 21:01:36 11° SSW visible
25 Oct 3.1 19:10:35 10° SSW 19:12:44 14° S 19:14:52 10° SE visible
25 Oct 3.4 20:51:11 10° SW 20:52:00 12° SSW 20:52:00 12° SSW visible
26 Oct 3.2 19:00:09 10° SSW 19:02:25 14° S 19:04:41 10° SE visible
26 Oct 3.3 20:41:10 10° SW 20:42:24 12° SSW 20:42:24 12° SSW visible
27 Oct 3.2 18:49:47 10° SW 18:52:06 15° S 18:54:25 10° SE visible
27 Oct 3.4 20:31:22 10° SSW 20:32:32 11° SSW 20:32:51 11° S visible
